This is the latest recevied weather packets stored in our database for station/object W6SNO-1. If no packets are shown the sender has not sent any weather packets the latest 10 day(s).
| Time | Temp. | Humidity | Pressure | Rain* | Wind** | Luminosity | Snow |
|---|---|---|---|---|---|---|---|
| 1777386709 | 8.89° C | 92% | 1020 hPa | 0 mm | - | 63 W/m² | - |
| 1777386405 | 8.33° C | 93% | 1020 hPa | 0 mm | - | 54 W/m² | - |
| 1777386103 | 8.33° C | 93% | 1020.1 hPa | 0 mm | - | 52 W/m² | - |
| 1777385799 | 8.33° C | 94% | 1019.8 hPa | 0 mm | - | 42 W/m² | - |
| 1777385496 | 8.33° C | 95% | 1020 hPa | 0 mm | - | 32 W/m² | - |
| 1777385194 | 7.78° C | 95% | 1019.9 hPa | 0 mm | - | 32 W/m² | - |
| 1777384889 | 7.78° C | 95% | 1019.7 hPa | 0 mm | - | 24 W/m² | - |
| 1777384587 | 7.78° C | 95% | 1020.1 hPa | 0 mm | - | 21 W/m² | - |
| 1777384286 | 7.78° C | 95% | 1019.7 hPa | 0 mm | - | 17 W/m² | - |
| 1777383981 | 7.78° C | 95% | 1019.8 hPa | 0 mm | - | 15 W/m² | - |
| 1777383678 | 7.78° C | 95% | 1019.7 hPa | 0 mm | - | 11 W/m² | - |
| 1777383375 | 6.67° C | 95% | 1019.6 hPa | 0 mm | - | 10 W/m² | - |
| 1777383070 | 7.22° C | 95% | 1019.6 hPa | 0 mm | - | 7 W/m² | - |
| 1777382768 | 6.67° C | 95% | 1019.6 hPa | 0 mm | - | 5 W/m² | - |
| 1777382463 | 6.67° C | 94% | 1019.5 hPa | 0 mm | - | 3 W/m² | - |
| 1777382159 | 7.22° C | 95% | 1019.6 hPa | 0 mm | - | 1 W/m² | - |
| 1777381856 | 7.22° C | 95% | 1019.3 hPa | 0 mm | - | 1 W/m² | - |
| 1777381555 | 7.22° C | 94% | 1019.4 hPa | 0 mm | - | 0 W/m² | - |
| 1777381250 | 6.67° C | 94% | 1019.4 hPa | 0 mm | - | 0 W/m² | - |
| 1777380949 | 6.67° C | 94% | 1019.3 hPa | 0 mm | - | 0 W/m² | - |
| 1777380645 | 6.67° C | 94% | 1019.2 hPa | 0 mm | - | 0 W/m² | - |
| 1777380341 | 6.67° C | 93% | 1019.3 hPa | 0 mm | - | 0 W/m² | - |
| 1777380038 | 6.67° C | 93% | 1019.1 hPa | 0 mm | - | 0 W/m² | - |
| 1777379733 | 7.22° C | 92% | 1018.9 hPa | 0 mm | - | 0 W/m² | - |
| 1777379429 | 7.22° C | 92% | 1019.2 hPa | 0 mm | - | 0 W/m² | - |
* Rain latest hour (hover to see other rain measurements)
** Current wind speed in m/s (hover to see current wind gust speed)